Greenwood, SC

8:37 AM EST on January 23, 2017 (GMT -0500)
Greenwood County

Weather History for KGRD - March, 2014

Change the Weather History Date:

Wednesday, March 12, 2014

  Actual Average (KAND) Record (KAND)
Temperature  
Mean Temperature 60 °F -  
Max Temperature 75 °F 66 °F 85 °F (1967)
Min Temperature 46 °F 42 °F 21 °F (1998)
Degree Days  
Heating Degree Days 4    
Growing Degree Days 10 (Base 50)    
Moisture  
Dew Point 52 °F    
Average Humidity 71    
Maximum Humidity 93    
Minimum Humidity 43    
Precipitation  
Precipitation 0.14 in - - ()
Sea Level Pressure  
Sea Level Pressure 29.60 in    
Wind  
Wind Speed 13 mph (SW)    
Max Wind Speed 26 mph    
Max Gust Speed 43 mph    
Visibility 8 miles    
Events Rain    
Averages and records for this station are not official NWS values.
T = Trace of Precipitation, MM = Missing Value Source: NWS Daily Summary

Daily Weather History Graph

Daily Weather History Graph

Search for Another Location

Airport or City:

Trip Planner

Search our weather history database for the weather conditions in past years. The results will help you decide how hot, cold, wet, or windy it might be!

Date:

Astronomy

Mar. 12, 2014 Rise Set
Actual Time 7:43 AM EDT 7:33 PM EDT
Civil Twilight 7:18 AM EDT 7:59 PM EDT
Nautical Twilight 6:49 AM EDT 8:28 PM EDT
Astronomical Twilight 6:19 AM EDT 8:57 PM EDT
Moon 4:10 PM EDT (3/12) 5:06 AM EDT (3/12)
Length of Visible Light 12h 40m
Length of Day
11h 50m
Waxing Gibbous, 85% of the Moon is Illuminated
Mar 12
Waxing Gibbous
Mar 16
Full
Mar 23
Last Quarter
Mar 30
New
Apr 7
First Quarter

Hourly Weather History & Observations

Time (EDT) Temp. Windchill Dew Point Humidity Pressure Visibility Wind Dir Wind Speed Gust Speed Precip Events Conditions
12:56 AM 68.0 °F - 51.1 °F 55% 29.71 in 9.0 mi SW 10.4 mph - N/A   Mostly Cloudy
1:56 AM 66.9 °F - 52.0 °F 59% 29.70 in 8.0 mi SW 10.4 mph - N/A   Overcast
2:56 AM 66.9 °F - 52.0 °F 59% 29.69 in 10.0 mi SW 17.3 mph 25.3 mph N/A   Overcast
3:56 AM 61.0 °F - 57.0 °F 87% 29.68 in 6.0 mi WSW 10.4 mph - 0.03 in Rain Light Rain
4:56 AM 60.1 °F - 57.9 °F 93% 29.65 in 4.0 mi SW 8.1 mph - 0.05 in Rain Rain
5:04 AM 60.1 °F - 57.9 °F 93% 29.67 in 4.0 mi SW 8.1 mph - 0.01 in Rain Rain
5:23 AM 60.1 °F - 57.9 °F 93% 29.66 in 6.0 mi SSW 8.1 mph - 0.02 in Rain Light Rain
5:44 AM 60.1 °F - 57.9 °F 93% 29.65 in 5.0 mi SSW 9.2 mph - 0.03 in Rain Light Rain
5:56 AM 60.1 °F - 57.9 °F 93% 29.63 in 6.0 mi SSW 10.4 mph - 0.03 in Rain Light Rain
6:56 AM 60.1 °F - 57.9 °F 93% 29.62 in 5.0 mi SSW 10.4 mph - 0.01 in Rain Light Rain
7:56 AM 60.1 °F - 57.9 °F 93% 29.61 in 7.0 mi SSW 11.5 mph - 0.00 in Rain Light Rain
8:21 AM 60.1 °F - 57.9 °F 93% 29.62 in 2.0 mi SSW 13.8 mph - 0.02 in Rain Rain
8:35 AM 60.1 °F - 57.9 °F 93% 29.61 in 5.0 mi SSW 11.5 mph - 0.02 in Rain Light Rain
8:56 AM 60.1 °F - 57.0 °F 90% 29.60 in 9.0 mi SSW 10.4 mph 19.6 mph 0.02 in   Overcast
9:56 AM 61.0 °F - 57.9 °F 90% 29.58 in 9.0 mi SSW 15.0 mph - N/A   Overcast
10:56 AM 61.0 °F - 57.9 °F 90% 29.56 in 10.0 mi SSW 11.5 mph - 0.00 in   Overcast
11:45 AM 62.1 °F - 57.9 °F 86% 29.56 in 10.0 mi SW 12.7 mph - 0.00 in   Overcast
11:56 AM 63.0 °F - 57.9 °F 84% 29.55 in 10.0 mi SW 17.3 mph 27.6 mph 0.00 in   Overcast
12:56 PM 68.0 °F - 59.0 °F 73% 29.52 in 10.0 mi WSW 18.4 mph 26.5 mph N/A   Overcast
1:28 PM 71.1 °F - 57.9 °F 63% 29.52 in 10.0 mi WSW 16.1 mph 26.5 mph N/A   Mostly Cloudy
1:56 PM 71.1 °F - 57.0 °F 61% 29.49 in 10.0 mi WSW 18.4 mph 24.2 mph N/A   Mostly Cloudy
2:11 PM 71.1 °F - 57.0 °F 61% 29.49 in 10.0 mi West 16.1 mph 26.5 mph N/A   Mostly Cloudy
2:56 PM 73.0 °F - 55.0 °F 53% 29.45 in 10.0 mi WSW 17.3 mph 32.2 mph N/A   Scattered Clouds
3:56 PM 75.0 °F - 54.0 °F 48% 29.42 in 10.0 mi WSW 21.9 mph 35.7 mph N/A   Scattered Clouds
4:56 PM 73.9 °F - 50.0 °F 43% 29.41 in 10.0 mi WSW 26.5 mph 38.0 mph N/A   Mostly Cloudy
5:56 PM 72.0 °F - 48.9 °F 44% 29.45 in 10.0 mi WNW 23.0 mph 42.6 mph N/A   Scattered Clouds
6:56 PM 64.0 °F - 44.1 °F 48% 29.52 in 10.0 mi West 21.9 mph 39.1 mph N/A   Partly Cloudy
7:56 PM 54.0 °F - 36.0 °F 51% 29.62 in 10.0 mi West 18.4 mph 31.1 mph N/A   Clear
8:56 PM 51.1 °F - 32.0 °F 48% 29.68 in 10.0 mi West 13.8 mph 24.2 mph N/A   Clear
9:56 PM 48.9 °F - 28.0 °F 44% 29.73 in 10.0 mi West 13.8 mph 23.0 mph N/A   Clear
10:56 PM 46.9 °F - 28.9 °F 50% 29.78 in 10.0 mi West 8.1 mph 17.3 mph N/A   Scattered Clouds
11:56 PM 46.0 °F 41.9 °F 27.0 °F 47% 29.80 in 10.0 mi West 8.1 mph 17.3 mph N/A   Clear